Location: Friedrichsberg
(52.5167°N, 13.4667°E)
Time: 04:43:44
(UTC+00:00)

Daily predictions for brighter satellites

Satellite Brightness Start Highest point End
(mag) Time Altitude Azimuth Time Altitude Azimuth Time Altitude Azimuth
SL-16 R/B 4.2 01:46:11 20° N 01:46:11 20° N 01:48:17 10° NNE
Cosmos 1980 Rocket 4.5 01:41:57 15° N 01:44:18 19° NNE 01:48:17 10° ENE
CENTAUR R/B 4.3 01:48:26 21° SE 01:49:42 22° ESE 01:54:43 10° ENE
ADEOS II 4.1 01:46:41 10° NNE 01:48:31 22° NNE 01:48:31 22° NNE
ARIANE 5 R/B 4.3 01:53:25 10° NNE 01:55:49 27° NE 01:55:49 27° NE
Resurs 1-4 Rocket 4.4 01:58:48 10° N 01:59:56 16° N 01:59:56 16° N
CZ-2D R/B 4.3 02:11:14 10° N 02:12:13 15° N 02:12:13 15° N
USA 238 DEB 4.3 02:19:35 44° SE 02:20:31 47° ESE 02:27:05 10° NE
USA 238 4.3 02:19:39 44° SSE 02:20:38 47° ESE 02:27:11 10° NE
NOSS 3-2 (A) 3.9 02:24:30 51° SE 02:24:44 51° SE 02:31:05 10° NE
CZ-2C R/B 4.2 02:20:58 10° NNE 02:25:20 29° E 02:27:56 19° SE
Lacrosse 4 Rocket 3.8 02:31:40 17° ESE 02:32:04 17° ESE 02:34:45 10° ENE
GP-B 4.4 02:33:18 38° ENE 02:33:18 38° ENE 02:36:50 10° N
Cosmos 1048 Rocket 4.4 02:34:49 62° ENE 02:34:49 62° ENE 02:39:26 10° NNE
Cosmos 1025 Rocket 4.3 02:37:27 40° ENE 02:37:27 40° ENE 02:41:13 10° NNE
IDEFIX/ARIANE 42P 3.2 02:32:02 10° NNE 02:35:46 48° NNE 02:35:46 48° NNE
USA 234 3.1 02:34:06 10° ENE 02:40:39 76° NNW 02:41:14 71° WNW
Meteor 1-16 Rocket 4.5 02:36:17 10° N 02:41:34 61° ENE 02:46:49 10° SSE
Cosmos 494 Rocket 4.4 02:42:46 59° ESE 02:43:02 59° ESE 02:48:14 10° NNE
Geosat 4.3 02:40:06 10° SE 02:45:03 64° NE 02:45:43 58° NNE
Cosmos 2279 Rocket 4.0 02:42:25 10° N 02:48:41 81° E 02:54:53 10° SSE
SL-16 R/B 4.5 02:45:24 10° NNW 02:49:28 20° NNE 02:53:31 10° ENE
NOSS 3-3 (A) 4.5 02:49:52 58° SW 02:49:52 58° SW 02:57:45 10° SSE
NOSS 3-3 (C) 4.5 02:50:05 57° SW 02:50:05 57° SW 02:57:46 10° SSE
Cosmos 1656 3.6 02:49:54 78° NNW 02:50:19 86° ENE 02:56:03 10° SSE
Cosmos 1634 Rocket 4.4 02:46:58 10° NNW 02:51:35 48° NW 02:51:35 48° NW
ADEOS Rocket 2.7 02:49:57 10° SSE 02:55:26 84° ENE 03:01:07 10° NNW
Cosmos 2344 3.6 02:56:53 43° SSW 02:59:38 78° SE 03:07:56 10° NE
Lacrosse 5 rocket 3.9 03:00:14 11° SE 03:01:23 12° SE 03:02:53 10° ESE
Meteor 1-21 4.3 03:04:11 60° NW 03:04:11 60° NW 03:09:16 10° N
COSMOS 2406 4.5 02:59:32 10° S 03:04:37 38° ESE 03:09:49 10° NE
Cosmos 2237 Rocket 4.5 03:03:13 11° NNW 03:04:45 12° N 03:06:52 10° NNE
Cosmos 1697 Rocket 2.9 03:03:55 21° NNW 03:07:45 71° ENE 03:13:24 10° SE
Cosmos 1536 Rocket 3.8 03:11:56 41° SSE 03:13:22 68° E 03:17:51 10° NNE
Cosmos 1943 4.5 03:17:52 26° NNW 03:17:52 26° NNW 03:22:19 10° NNE
NOSS 3-2 (C) 3.6 03:21:46 34° SSW 03:24:29 72° SE 03:31:10 10° NE
MSX 3.9 03:20:11 10° N 03:25:47 55° WNW 03:26:51 48° WSW
Cosmos 44 Rocket 3.6 03:29:13 48° SW 03:29:13 48° SW 03:33:52 10° SSE
CZ-4B R/B 1.7 03:25:56 10° SSE 03:29:23 67° ENE 03:30:17 44° N
SL-16 R/B 4.2 03:28:04 13° NNW 03:29:25 13° NNW 03:32:09 10° NNE
Cosmos 1980 Rocket 2.7 03:23:57 10° NNW 03:29:31 60° NE 03:35:03 10° SE
Cosmos 1400 Rocket 4.4 03:26:49 10° N 03:30:31 35° ENE 03:34:07 10° SE
ADEOS II 3.9 03:27:26 10° N 03:29:26 17° NNW 03:29:26 17° NNW
PSLV R/B 3.4 03:30:40 10° NNE 03:34:57 78° WNW 03:36:14 45° SSW
ARIANE 5 R/B 3.7 03:33:00 10° N 03:36:09 26° NW 03:36:09 26° NW
CENTAUR R/B 2.6 03:35:39 28° SW 03:39:14 84° SE 03:46:37 10° NE
Cosmos 2360 4.1 03:34:51 12° NNW 03:40:11 88° WSW 03:45:53 10° SSE
Intercosmos 24 4.0 03:36:14 10° N 03:40:32 72° ENE 03:44:05 10° SSE
SKYMED 2 4.4 03:38:30 10° SE 03:42:43 51° ENE 03:46:57 10° N
ERS-2 3.1 03:45:17 10° S 03:47:30 33° SSW 03:47:30 33° SSW
KORONAS-FOTON 3.8 03:51:42 38° SW 03:52:59 61° WNW 03:56:52 10° N
Cosmos 967 Rocket 4.4 03:49:43 17° NW 03:54:40 71° SW 04:00:53 10° SSE
SAR-Lupe-4 3.4 03:51:35 10° SSE 03:55:09 87° WSW 03:58:47 10° NNW
Cosmos 2278 3.7 03:50:08 10° NNW 03:55:51 87° ENE 04:01:31 10° SSE
ALOS 2.4 03:51:46 10° NNE 03:56:28 76° ESE 04:01:08 10° S
Cosmos 1092 Rocket 4.4 03:52:10 10° S 03:58:15 64° E 04:04:25 10° NNE
SL-14 R/B 3.8 03:54:41 10° S 03:58:37 63° E 04:02:38 10° NNE
Cosmos 2322 Rocket 3.7 03:54:38 10° NNW 03:59:47 33° NE 04:04:54 10° ESE
Aureole 3 4.1 03:56:09 10° N 03:59:52 56° ENE 04:04:33 10° SSE
CZ-2C R/B 4.3 03:57:05 10° N 03:59:22 22° NW 03:59:22 22° NW
CZ-2C R/B 2.6 03:58:56 10° N 04:03:47 48° WNW 04:07:18 17° SW
Nadezhda 4 Rocket 3.9 03:58:31 10° SSW 04:04:38 79° W 04:10:50 10° N
Cosmos 1300 2.6 04:01:09 10° NNW 04:04:59 87° W 04:08:48 10° S
Cosmos 1726 Rocket 3.5 04:01:02 10° N 04:05:31 90° WSW 04:10:00 10° S
ADEOS 3.5 04:01:10 10° NNE 04:06:26 88° WNW 04:11:40 10° SSW
Abrixas rocket 3.1 04:06:51 28° SSW 04:06:57 28° SSW 04:09:28 10° SE
PAYLOAD A 4.4 04:04:03 10° N 04:08:45 41° WNW 04:12:20 17° SW
ISS -1.7 04:07:10 13° SSW 04:09:29 24° SSE 04:12:18 10° E
PSLV R/B 4.1 04:05:29 10° SSE 04:09:41 81° ENE 04:13:56 10° NNW
GP-B 4.2 04:10:49 25° WNW 04:10:49 25° WNW 04:13:53 10° NNW
Lacrosse 4 Rocket 1.2 04:08:01 25° SW 04:10:17 70° NW 04:14:21 10° NNE
USA 238 DEB 3.8 04:07:03 23° WSW 04:11:24 60° NW 04:18:23 10° NE
USA 238 3.8 04:07:08 23° WSW 04:11:29 60° NW 04:18:29 10° NE
Cosmos 1833 Rocket 2.7 04:05:53 10° SSW 04:11:32 84° ESE 04:17:14 10° NNE
Cosmos 1689 Rocket 1.9 04:09:33 10° SSE 04:12:29 88° W 04:15:26 10° NNW
SAR-Lupe-1 4.0 04:09:17 10° S 04:12:49 60° WSW 04:16:23 10° NNW
Meteor 2-13 Rocket 4.5 04:07:47 10° S 04:13:58 88° E 04:20:09 10° NNE
USA 290 3.8 04:11:18 10° S 04:14:19 37° ESE 04:17:22 10° NE
Cosmos 1025 Rocket 4.0 04:14:23 26° WNW 04:14:49 27° WNW 04:18:36 10° N
Cosmos 1484 Rocket 2.6 04:11:18 10° N 04:15:12 69° WNW 04:19:00 10° SSW
NOSS 3-2 (A) 3.8 04:11:55 23° W 04:15:38 53° NNW 04:22:29 10° NE
IDEFIX/ARIANE 42P 4.0 04:12:42 10° N 04:16:12 18° NW 04:16:34 18° WNW
Meteor 1-24 Rocket 3.9 04:11:15 10° S 04:16:52 78° E 04:22:45 10° NNE
Cosmos 1674 3.4 04:16:30 28° WSW 04:17:30 33° WNW 04:21:00 10° N
Cosmos 2228 3.1 04:14:19 10° NNW 04:18:34 52° W 04:22:48 10° S
Cosmos 2369 3.9 04:13:22 10° NW 04:18:48 47° WSW 04:24:10 10° S
Meteor 2-10 Rocket 4.2 04:14:54 10° N 04:19:51 56° ENE 04:24:49 10° SSE
Cosmos 1269 Rocket 4.2 04:15:37 15° SW 04:19:55 49° WNW 04:25:07 10° NNE
Cosmos 1606 Rocket 3.7 04:16:08 10° NNW 04:20:30 54° W 04:24:52 10° S
CZ-4B R/B 3.4 04:18:10 10° NNE 04:22:06 62° ESE 04:26:13 10° S
USA 234 3.5 04:16:59 10° E 04:23:25 61° N 04:28:35 17° WNW
ATLAS 3B R/B 3.1 04:18:57 10° SSW 04:25:24 63° SE 04:32:01 10° NE
METEOR-M 4.1 04:21:09 10° NNE 04:26:32 79° WNW 04:31:51 10° SSW
Cosmos 1626 2.2 04:22:57 10° SSW 04:26:34 53° WNW 04:30:14 10° N
Cosmos 2082 Rocket 2.5 04:24:30 10° SSW 04:30:04 71° ESE 04:35:42 10° NE
COSMO-SKYMED 1 2.6 04:26:29 10° S 04:30:45 59° WSW 04:35:05 10° NNW
SL-16 R/B 2.8 04:29:10 10° NNW 04:34:48 59° NE 04:40:24 10° SE
Meteor 1-31 Rocket 2.9 04:35:20 10° N 04:39:11 52° WNW 04:43:01 10° SSW
Lacrosse 5 rocket 1.6 04:36:08 10° SW 04:39:45 60° SE 04:43:34 10° ENE
Cosmos 2333 Rocket 4.2 04:35:46 10° NNW 04:40:15 23° NNE 04:44:43 10° E
Meteor 2-5 Rocket 3.8 04:34:39 10° SSW 04:40:18 60° WNW 04:46:06 10° N
ADEOS Rocket 4.0 04:38:15 10° SW 04:41:52 18° W 04:45:32 10° NW
Meteor PRIRODA 3.5 04:40:59 10° NNE 04:44:38 86° WNW 04:48:18 10° SSW
CREW DRAGON DEMO-1 DEB 3.2 04:42:58 19° W 04:44:55 50° SSW 04:47:51 10° ESE
Meteor 2-8 Rocket 4.4 04:38:46 10° NNW 04:44:57 76° W 04:51:06 10° S
Cosmos 1553 Rocket 4.0 04:39:30 10° N 04:45:42 89° ENE 04:51:48 10° S
deb Kosmos-1763 4.1 04:45:13 10° SW 04:48:45 54° WNW 04:52:17 10° NNE
COSMOS 2406 3.5 04:43:21 10° SW 04:48:51 49° NW 04:54:22 10° NNE
Okean 1-7 Rocket 3.6 04:44:30 10° S 04:49:04 88° W 04:53:37 10° N
deb Chang Zheng 4 3.9 04:46:00 10° N 04:49:59 40° WNW 04:53:58 10° SW
CZ-4B R/B 4.3 04:45:57 10° N 04:50:03 44° WNW 04:53:58 10° SW
Cosmos 2058 Rocket 3.2 04:46:01 10° NNW 04:50:25 53° W 04:54:46 10° S
Cosmos 1428 Rocket 4.5 04:44:47 10° SSW 04:51:02 79° WNW 04:57:15 10° N
Cosmos 1697 Rocket 3.7 04:46:44 10° NW 04:51:14 25° WSW 04:55:44 10° SSW
Cosmos 2237 Rocket 4.4 04:48:15 10° NNW 04:51:26 15° NNE 04:54:38 10° NE
Cosmos 1455 2.5 04:50:32 10° N 04:54:25 72° ENE 04:58:16 10° SSE
ARGOS Delta rocket 4.3 04:54:34 10° N 04:59:43 51° WNW 05:04:59 10° SW
ASTRO F (AKARI) 4.5 04:57:06 10° N 05:00:42 64° WNW 05:04:06 10° SSW
CZ-4B R/B 3.4 05:00:41 10° WSW 05:02:02 12° W 05:03:24 10° WNW
Cosmos 2360 Rocket 3.2 04:56:36 10° NNW 05:02:03 47° NE 05:07:28 10° ESE
Cosmos 2026 Rocket 4.1 04:55:54 10° SSW 05:02:14 65° WNW 05:08:36 10° N
FENGYUN 3A 4.2 04:58:29 10° N 05:03:27 37° WNW 05:08:24 10° SW
Cosmos 1892 Rocket 3.8 05:01:46 10° SSW 05:05:57 45° WNW 05:10:13 10° N
Cosmos 1400 Rocket 3.8 05:03:33 10° NW 05:06:50 25° W 05:10:06 10° SSW
H-2A R/B 2.9 05:04:55 10° NNE 05:09:23 72° ESE 05:13:41 10° S
Cosmos 2084 4.2 05:05:54 10° SSW 05:10:09 57° SE 05:14:30 10° NE
Cosmos 1980 Rocket 3.0 05:08:25 10° NW 05:13:12 30° WSW 05:17:59 10° SSW
Cosmos 2344 4.2 05:07:33 10° W 05:14:50 47° NNW 05:23:38 10° NE
YAOGAN 6 3.1 05:11:35 10° NNE 05:15:18 66° E 05:18:57 10° S
NOSS 3-2 (C) 4.1 05:10:03 10° W 05:15:53 44° NNW 05:22:39 10° NE
SL-16 R/B 4.4 05:13:37 10° NNW 05:16:12 13° NNE 05:18:47 10° NE
Meteor 2-15 4.5 05:13:27 10° NNW 05:19:29 64° W 05:25:27 10° S
Cosmos 2251 Rocket 3.7 05:15:03 10° SW 05:20:16 52° WNW 05:25:31 10° NNE
